CZ-6A DEB, 61151

Orbit data source: Space-Track

CZ-6A DEB, 61151 is space debris in LEO originally from a launch on Tue, 06 Aug 2024 UTC launched from the Taiyaun Space Center, China (TSC). Debris objects in space refer to the collection of defunct objects orbiting the Earth. Examples of debris include non-operational satellites, rocket bodies, and fragments generated from explosions, collisions, or faulty payload assembly.

Loading next visibility...
Identifier
61151, 2024-140QV
Orbit
LEO
Country
Flag of CNCN / PRC
Related business
Manufacturer
SAST
Mission
Spacecraft
Bus & Motor
Unknown
Mass
Unknown
Launch date (UTC)
2024-08-06 (1 year ago)
Launch vehicle
Unknown
Launch site
Taiyaun Space Center, China (TSC)
Object type
Payload
Rocket body
Debris
Shape & HBR
Unknown shape, 0.1 m
Radar Cross Section
Small (<0.1 m²)

Expand to show TLE details & history
Last TLE update: 7 hours ago

TLE from 7 hours ago
0 CZ-6A DEB
1 61151U 24140QV  25349.91080908  .00005070  00000-0  60715-3 0  9997
2 61151  89.1743 301.6611 0134401 108.7500 252.8361 14.77618781 70756
Epoch: 2025-12-15T21:51Z
TLE epoch observation values (Epoch: 2025-12-15T21:51:33.904Z)
Latitude
-0.00003°
Longitude
-111.03276°
Altitude
668.967 km
Speed
7.507 km/s
True Right ascension
20h 06m 38s
True Declination
0° 00' 00"
Sunlit
Object was in daylight at epoch
Visualization orbit readout
Latitude
Unknown
Longitude
Unknown
Altitude
Unknown
Speed
Unknown
Apparent Right ascension
Unknown
Apparent Declination
Unknown
Sunlit
N/A
Visualization observer readout
Local Sidereal Time
03:22:46
Azimuth
Unknown
Elevation
Unknown
Doppler factor
Unknown
Orbital elements
Apogee altitude
727.958 km
Perigee altitude
539.478 km
Semi-major axis
7,011.855 km
Eccentricity
0.01344
Inclination
89.1743°
RAAN
301.6611°
Arg. of periapsis
108.75°
True anomaly
251.37199°
Mean anomaly
252.8361°
Eccentric anomaly
252.1033°
Mean motion
3.69653 °/min
Orbital period
97.39 mins
BSTAR
0.00060715
Loading maneuver chart data...
Computing Atmospheric mass density...
Loading historical data...
Loading historical data...
Loading historical data...
Loading historical data...
Loading historical data...
Loading historical data...
Loading historical data...

Documentation

Showing up to 5 results
|